User: anonymous   Login
Location: Caltech
(34.1382°N, 118.1253°W)
Time: 21:50:50
(UTC-08:00)
Language:

Cosmos 2219 Rocket - Orbit

View from above orbital plane
View from above orbital plane
View from above satellite
View from above satellite

Ground track
Ground track

The orbit data is extracted from the following two-line orbital elements,

1 22220U 92076B   17016.97460427 +.00000083 +00000-0 +65525-4 0  9994
2 22220 070.9999 017.5419 0011697 152.9561 227.8755 14.16407694249039
Epoch (UTC): 16 January 2017 23:23:25
Eccentricity: 0.0011697
inclination: 70.9999°
perigee height: 829 km
apogee height: 846 km
right ascension of ascending node: 17.5419°
argument of perigee: 152.9561°
revolutions per day: 14.16407694
mean anomaly at epoch: 227.8755°
orbit number at epoch: 24903

The dashed part of the orbit path shows where the satellite is in the earth's shadow,  

DLR